Regional Weather Roundup
Issued by NWS

Home | Current Version | Previous Version | Text Only | Print | Product List | Glossary On
Versions: 1 2 3 4 5 6 7 8 9 10 11 12 13 14 15 16 17 18 19 20 21 22 23 24 25 26 27 28 29 30 31 32 33 34 35 36 37 38 39 40 41 42 43 44 45 46 47 48 49 50
000
ASUS46 KSTO 020504
RWRCA

NORTHERN AND CENTRAL CA REGIONAL WEATHER ROUNDUP
NATIONAL WEATHER SERVICE SACRAMENTO CA
1000 PM PDT TUE SEP 01 2015

NOTE: FAIR INDICATES FEW OR NO CLOUDS BELOW 12,000 FEET WITH NO
SIGNIFICANT WEATHER AND/OR OBSTRUCTIONS TO VISIBILITY.

CAZ001-003-020600-
NORTHWEST AREA

CITY           SKY/WX    TMP DP  RH WIND       PRES   REMARKS
CRESCENT CITY  MOCLDY    61  59  93 CALM      29.96S
UKIAH          CLEAR     65  50  58 N6        29.91R
$$

CAZ006-505>513-020600-
BAY AREA

CITY           SKY/WX    TMP DP  RH WIND       PRES   REMARKS
SANTA ROSA     CLEAR     61  53  75 CALM      29.87R
SAN RAFAEL     N/A       69  MM  MM MISG
NAPA           CLEAR     61  56  83 SW6       29.88R
CONCORD        CLEAR     65  55  70 S20       29.89R
OAKLAND CITY   N/A       64  MM  MM MISG
OAKLAND        PTCLDY    64  55  72 W13       29.93R
SAN FRAN CITY  N/A       62  MM  79 MISG
SAN FRAN ARPT  PTCLDY    63  55  75 SW13      29.94R
LIVERMORE      CLEAR     65  56  72 W8        29.92R
HAYWARD        CLEAR     63  56  78 W9        29.94R
REDWOOD CITY   N/A       MM  MM  MM MISG
MOFFETT ARPT   CLEAR     64  54  69 NW5       29.95R
SAN JOSE ARPT  CLEAR     64  57  78 NW5       29.94R
$$
CAZ034-037-514>518-020600-
CENTRAL COAST

CITY           SKY/WX    TMP DP  RH WIND       PRES   REMARKS
WATSONVILLE    CLOUDY    63  56  78 E5        29.96R
SALINAS        CLOUDY    63  55  75 W9        29.96R
MONTEREY       CLOUDY    64  56  75 W5        29.98R
SAN LUIS OBISP PTCLDY    62  55  77 NW8       29.96R
SANTA MARIA    PTCLDY    62  58  86 NW3       29.97R
$$
CAZ015-016-020600-
NORTHERN SACRAMENTO VALLEY

CITY           SKY/WX    TMP DP  RH WIND       PRES   REMARKS
REDDING        CLEAR     83  49  30 SW9       29.79R
RED BLUFF      CLEAR     79  49  34 S8        29.79R
OROVILLE       CLEAR     79  48  33 SE8       29.82R
$$
CAZ016>018-020600-
SOUTHERN SACRAMENTO VALLEY

CITY           SKY/WX    TMP DP  RH WIND       PRES   REMARKS
AUBURN         CLEAR     73  48  40 SE6       29.90R
BEALE AFB      CLEAR     66  50  55 S7        29.81R
LINCOLN        FAIR      73  50  43 SE12      29.82R
MARYSVILLE     CLEAR     72  55  55 SE15      29.81R
SAC INTL ARPT  CLEAR     68  56  65 S16       29.81R
MATHER AIRPORT CLEAR     70  55  60 S5        29.85R
DOWNTOWN SAC   N/A       71  MM  MM MISG
SAC EXEC ARPT  CLEAR     68  56  65 S12       29.84R
VACAVILLE      CLEAR     69  56  62 S13G21    29.83R
TRAVIS AFB     CLEAR     65  57  75 SW24G30   29.82R
$$
CAZ019>021-020600-
SAN JOAQUIN VALLEY

CITY           SKY/WX    TMP DP  RH WIND       PRES   REMARKS
STOCKTON       CLEAR     70  54  56 W13G22    29.85R
MODESTO        CLEAR     75  52  44 NW12      29.84R
MERCED         CLEAR     70  50  49 W9        29.85R
LEMOORE        PTCLDY    77  48  35 NW9       29.83S
FRESNO         PTCLDY    81  44  27 NW14      29.84R
HANFORD        PTCLDY    82  50  32 NW12      29.83R
PORTERVILLE    CLEAR     75  50  41 S7        29.84R
BAKERSFIELD    PTCLDY    81  49  32 NW9       29.84R
$$
CAZ011-012-071-020600-
NORTHERN MOUNTAINS

CITY           SKY/WX    TMP DP  RH WIND       PRES   REMARKS
YREKA          PTCLDY    69  36  29 N10       29.90R
MOUNT SHASTA   PTCLDY    64  41  42 CALM      29.94S
ALTURAS        PTCLDY    64  37  36 CALM      29.97R
$$
CAZ011-012-071-020600-
SIERRA NEVADA MTNS

CITY           SKY/WX    TMP DP  RH WIND       PRES   REMARKS
BLUE CANYON    CLEAR     61  37  41 SE3       30.12R
TRUCKEE        CLEAR     50  32  50 CALM      30.13S
TAHOE VLY ARPT CLEAR     61  38  42 S7        30.14R
MAMMOTH LAKES  FAIR      63  27  25 NW7G17    30.19S
$$




USA.gov is the U.S. government's official web portal to all federal, state and local government web resources and services.